Wind_Speed
7 7 8 8 9 10 11 9 11 13 14 14 16 17 18 19 20 20 21 22 22 23 23 24 25 26 26 26 27 26 27 27 27 27 28 27 27 27 27 27 26 25 25 24
7 9 11 10 10 11 10 10 12 13 14 14 16 18 19 19 20 21 21 22 23 23 24 25 25 26 26 26 27 26 26 27 27 28 28 28 27 28 27 27 26 25 25 25
7 10 12 10 9 10 11 11 12 14 15 16 16 19 20 20 20 22 22 23 25 25 26 26 26 26 26 26 27 26 26 27 28 28 27 27 27 26 26 25 24 23 23 23
7 9 10 10 10 11 12 12 13 14 15 14 14 17 19 21 23 22 24 26 27 27 28 28 27 27 28 27 27 27 27 27 26 26 26 27 26 25 24 23 23 22 22 23
8 10 11 11 12 12 11 12 13 12 12 12 13 16 20 22 23 25 27 27 26 28 28 28 28 28 28 28 27 27 27 26 25 25 26 26 25 24 24 23 22 22 22 22
10 12 12 12 12 13 12 12 12 10 10 12 13 17 20 22 23 25 25 26 26 26 27 28 28 28 27 26 26 26 24 24 24 25 25 25 23 23 23 22 22 22 22 22
10 13 14 14 13 13 12 13 12 10 11 12 13 16 18 20 23 24 25 26 26 27 27 27 26 25 25 25 25 24 24 24 24 24 24 24 22 22 22 21 21 21 21 22
11 12 13 14 13 13 12 12 13 12 12 12 13 15 19 21 22 23 24 25 25 24 25 25 24 24 23 23 23 23 23 24 24 24 23 22 21 20 20 20 20 20 20 21
12 12 13 15 14 14 13 13 13 13 11 11 13 16 19 19 20 22 23 23 23 23 23 23 23 22 22 22 22 22 22 23 23 23 21 20 20 19 19 19 20 20 19 19
13 13 13 14 14 14 13 13 13 12 13 13 14 16 18 19 19 21 22 22 23 22 22 22 21 21 21 21 21 22 22 21 21 20 19 19 19 18 19 18 18 18 18 19
14 14 14 14 13 13 13 14 14 12 12 14 15 16 18 19 21 21 22 22 23 22 21 21 21 21 21 21 21 21 21 21 20 19 18 17 16 16 17 17 17 17 17 17
15 15 14 13 13 13 14 14 15 14 12 12 15 17 19 20 20 21 21 22 22 21 21 20 20 21 20 21 20 20 20 20 19 17 16 15 15 15 16 16 15 16 16 16
15 14 13 12 14 14 15 15 15 15 14 14 15 17 19 20 20 21 22 22 21 21 20 20 20 20 20 20 19 19 19 19 18 16 15 14 13 14 14 14 15 15 15 16
14 14 13 13 13 14 15 15 15 16 15 16 15 17 18 19 20 21 21 22 22 20 20 19 19 19 19 19 20 19 19 19 17 16 16 14 13 13 14 14 14 14 15 15
15 14 14 14 14 14 15 14 15 15 15 16 16 18 19 20 20 21 21 21 21 20 19 18 19 19 19 19 19 19 19 18 17 16 16 15 13 14 14 13 14 15 15 15
16 15 15 14 15 15 15 16 15 15 15 16 17 18 18 19 20 21 20 21 20 20 19 18 19 18 18 19 19 19 18 17 17 16 15 13 12 13 13 13 13 15 15 17
16 17 16 15 14 15 15 16 17 16 15 16 17 18 19 20 21 21 20 20 19 19 18 18 18 19 19 18 19 18 18 17 16 16 13 12 13 13 14 13 14 15 16 17
16 17 16 16 15 15 16 17 17 17 16 16 18 18 19 20 21 21 20 19 18 18 18 18 18 18 18 18 18 18 17 16 15 14 13 12 13 13 13 14 14 16 17 17
16 17 17 16 15 17 17 17 18 18 17 17 19 19 20 20 21 20 19 18 18 18 17 18 19 18 18 18 17 17 17 16 14 14 13 13 13 13 14 15 16 16 17 17
17 17 17 17 17 17 18 18 19 19 19 19 19 20 21 21 21 20 19 18 18 18 17 17 17 17 17 17 17 16 16 15 14 13 13 13 13 13 14 15 16 16 16 17
19 18 18 18 19 19 20 19 19 20 21 20 20 21 21 21 21 20 19 18 18 18 18 17 16 16 16 16 16 15 15 15 14 13 13 14 13 14 15 15 16 17 17 18
20 21 20 20 20 19 22 21 21 22 21 21 21 21 21 21 20 20 19 18 18 17 17 16 16 16 16 15 15 15 15 14 14 13 13 14 14 14 15 16 17 18 18 18
21 21 22 22 21 21 22 22 22 22 22 22 21 20 21 21 20 20 19 18 17 16 15 15 15 15 15 15 14 14 15 14 13 13 13 14 14 15 16 16 17 18 18 19
23 23 23 23 23 23 23 23 22 22 22 22 22 21 22 22 21 20 19 18 17 16 15 14 14 15 14 14 14 14 14 13 13 14 14 14 14 15 16 17 17 18 18 18
24 24 25 25 24 23 23 23 22 22 23 23 23 22 22 22 22 21 20 18 17 16 15 15 14 14 14 14 14 14 14 13 13 14 15 14 14 14 15 16 16 17 17 17
25 25 26 25 25 24 24 24 24 24 24 24 24 23 23 23 23 22 20 19 18 16 15 15 15 14 14 14 14 14 13 13 13 14 14 14 13 14 14 15 15 16 17 17
Wind_Direction
356 331 309 295 288 278 276 278 281 285 286 286 290 293 295 296 294 294 298 300 300 300 301 301 302 303 303 303 302 301 300 299 298 297 296 297 298 299 301 300 298 296 295 296
333 308 293 293 289 290 291 282 276 274 278 283 288 292 293 294 293 296 300 302 302 302 302 302 303 304 304 303 302 301 299 299 300 300 298 298 299 299 299 298 296 294 294 295
298 295 296 303 298 300 298 289 289 289 289 292 291 294 290 295 293 299 302 304 304 303 304 305 304 304 303 304 302 301 299 299 299 299 298 299 299 298 299 298 296 295 295 295
314 311 312 314 305 300 302 294 293 292 293 297 297 294 295 293 297 301 305 305 304 303 304 306 306 305 304 304 304 303 302 300 299 299 298 299 300 298 297 296 296 295 294 293
328 318 316 315 310 305 306 309 307 305 299 293 289 287 289 294 299 303 305 306 305 304 304 307 308 306 305 305 306 305 303 301 302 300 300 300 298 297 296 295 296 295 294 296
324 315 309 308 312 312 308 309 311 311 301 286 279 280 287 294 301 303 306 306 307 306 307 308 308 305 305 305 306 306 305 304 302 301 300 299 298 296 295 294 294 294 294 295
322 317 311 312 316 313 311 312 312 312 302 296 294 289 287 298 302 306 308 309 310 310 311 312 312 310 309 307 306 307 305 304 303 303 302 300 297 296 296 295 294 295 296 297
317 309 307 309 309 310 310 314 312 307 305 305 303 293 295 302 307 310 312 314 315 315 316 316 316 317 317 315 312 310 309 310 309 306 303 302 300 298 297 298 298 298 299 300
313 311 310 311 312 313 314 312 308 305 307 303 295 296 300 302 307 313 316 316 317 319 320 321 320 320 320 321 321 319 318 316 313 310 308 306 303 300 301 300 300 299 298 301
305 312 316 315 318 320 317 311 309 308 312 309 305 302 300 305 313 316 319 319 321 321 321 320 323 322 323 324 324 324 321 318 316 314 310 308 306 303 303 303 304 300 300 303
305 311 316 317 318 317 316 317 315 312 307 308 311 305 305 311 316 319 322 323 323 322 323 324 324 323 324 324 325 327 325 323 320 317 314 314 313 311 312 311 308 304 304 306
306 309 311 313 315 315 314 316 320 313 310 313 313 310 311 314 315 320 325 326 325 323 326 326 326 327 327 327 327 327 328 328 326 324 321 320 318 318 316 316 314 310 310 312
308 308 311 314 315 316 313 315 316 314 312 316 315 312 312 316 319 324 327 327 328 328 330 330 331 332 332 331 330 331 332 331 331 331 331 328 324 323 324 323 321 320 317 317
307 308 308 305 305 307 310 311 313 313 313 313 316 313 315 317 319 325 330 330 330 331 331 331 333 335 334 334 334 333 334 335 334 336 337 334 333 331 330 330 329 326 326 326
306 307 308 305 306 304 302 304 306 309 311 312 317 317 319 322 325 327 329 330 330 330 330 330 332 333 333 335 336 334 333 334 336 336 339 337 334 335 333 332 331 332 334 331
308 310 310 308 307 304 302 304 305 305 306 309 313 316 319 324 325 326 327 325 327 328 328 329 331 332 333 333 334 334 333 333 335 336 339 342 341 339 336 336 335 335 334 332
307 309 311 311 308 305 305 307 308 308 307 307 310 313 317 321 323 324 323 323 325 328 329 331 333 333 334 335 334 333 332 333 336 339 339 341 341 340 340 339 338 338 337 337
306 308 309 308 307 303 306 306 307 307 304 306 311 313 317 321 324 324 322 321 322 324 325 329 333 332 333 334 335 336 336 335 335 340 340 341 345 344 342 340 340 338 337 338
306 307 306 304 302 301 305 305 306 305 302 303 306 311 315 317 321 322 321 320 322 323 323 326 328 329 331 331 332 336 338 338 335 336 339 342 343 343 341 340 340 339 339 339
304 304 303 302 300 297 303 302 303 301 300 303 307 310 312 314 317 319 318 318 320 321 321 321 325 328 328 329 331 332 336 338 339 337 338 340 341 342 341 343 343 343 342 341
300 300 300 299 298 298 300 301 299 298 299 302 304 306 308 312 316 316 316 315 316 317 318 319 322 326 327 327 329 331 335 337 338 337 339 341 341 341 341 341 342 343 342 340
297 296 296 297 297 296 296 296 295 296 297 299 301 303 304 307 311 313 312 311 311 313 314 317 319 322 325 326 327 329 334 336 338 338 338 339 340 341 341 339 340 342 342 340
295 294 292 293 293 293 293 293 295 296 293 295 297 299 301 304 307 309 309 307 310 311 310 314 316 319 322 324 325 327 331 332 334 336 336 337 337 337 338 338 340 342 341 341
293 293 292 292 290 289 290 291 293 293 292 293 295 298 300 302 304 305 306 305 307 308 308 310 313 316 318 321 322 324 326 327 328 331 333 332 333 335 338 339 341 341 342 343
290 291 290 290 290 289 289 290 292 293 293 293 293 295 297 299 300 303 305 304 304 306 307 308 310 312 314 316 318 322 323 325 326 329 331 329 329 333 337 340 342 343 345 346
287 288 287 287 288 287 287 289 291 292 293 293 292 292 294 295 297 299 300 301 301 301 301 303 305 307 310 313 314 317 320 320 322 327 331 332 332 334 338 342 342 344 345 345
Height
5858 5859 5857 5856 5856 5856 5856 5855 5854 5853 5851 5850 5849 5847 5846 5843 5841 5840 5838 5836 5834 5832 5830 5828 5825 5823 5821 5818 5816 5813 5811 5808 5807 5804 5802 5799 5797 5795 5793 5791 5789 5786 5785 5783
5860 5859 5857 5855 5855 5855 5854 5853 5852 5851 5850 5848 5847 5845 5842 5839 5837 5835 5833 5831 5829 5827 5825 5823 5821 5818 5816 5813 5811 5808 5806 5803 5801 5798 5796 5793 5791 5789 5787 5785 5783 5781 5779 5778
5859 5859 5856 5854 5853 5853 5852 5850 5850 5848 5846 5844 5844 5842 5838 5835 5832 5830 5829 5828 5826 5823 5821 5818 5815 5813 5810 5808 5805 5803 5800 5798 5795 5792 5790 5787 5785 5783 5781 5779 5778 5776 5774 5773
5858 5857 5855 5854 5852 5851 5849 5848 5846 5845 5844 5842 5841 5839 5835 5831 5828 5827 5826 5824 5821 5818 5815 5812 5808 5807 5804 5802 5799 5797 5794 5791 5789 5786 5784 5781 5779 5777 5775 5774 5772 5771 5769 5768
5857 5856 5854 5852 5850 5849 5848 5846 5844 5842 5841 5840 5838 5836 5832 5828 5826 5824 5822 5819 5816 5813 5809 5806 5803 5801 5798 5796 5793 5790 5787 5784 5782 5780 5777 5775 5773 5771 5769 5768 5767 5765 5764 5763
5856 5854 5852 5850 5848 5847 5845 5843 5842 5840 5838 5837 5835 5833 5829 5826 5824 5822 5818 5815 5811 5808 5804 5801 5798 5795 5792 5789 5787 5784 5781 5778 5776 5773 5771 5769 5766 5765 5763 5762 5761 5760 5759 5757
5855 5853 5850 5848 5847 5845 5843 5841 5839 5838 5837 5835 5833 5830 5827 5824 5821 5819 5815 5811 5807 5803 5799 5796 5792 5789 5787 5784 5781 5778 5776 5773 5769 5767 5765 5762 5760 5759 5757 5756 5755 5754 5753 5751
5853 5852 5849 5846 5844 5842 5840 5839 5837 5835 5834 5832 5830 5827 5824 5821 5819 5816 5812 5808 5803 5798 5795 5791 5788 5785 5782 5779 5776 5773 5770 5766 5762 5761 5758 5756 5754 5753 5752 5751 5750 5748 5747 5746
5851 5850 5847 5843 5841 5840 5838 5836 5834 5832 5831 5830 5828 5823 5819 5817 5815 5812 5808 5804 5800 5796 5792 5788 5784 5781 5778 5775 5772 5768 5765 5762 5758 5755 5752 5751 5749 5748 5746 5746 5744 5743 5742 5741
5848 5847 5845 5842 5839 5838 5836 5833 5832 5830 5828 5827 5825 5821 5817 5813 5810 5808 5805 5801 5797 5793 5789 5785 5781 5778 5775 5772 5768 5765 5761 5757 5754 5751 5748 5746 5745 5743 5742 5741 5739 5738 5737 5736
5845 5844 5842 5840 5838 5836 5834 5832 5829 5827 5826 5824 5821 5819 5814 5811 5808 5805 5801 5797 5793 5789 5786 5782 5778 5775 5772 5768 5765 5762 5758 5754 5751 5747 5744 5742 5741 5739 5738 5737 5735 5734 5732 5731
5842 5841 5839 5838 5835 5833 5831 5829 5827 5825 5823 5821 5819 5817 5811 5808 5805 5802 5798 5795 5790 5786 5783 5779 5775 5772 5769 5766 5762 5759 5755 5752 5748 5745 5741 5740 5738 5737 5735 5733 5731 5730 5728 5727
5839 5838 5837 5835 5834 5831 5828 5826 5824 5823 5821 5818 5816 5815 5809 5806 5802 5799 5796 5792 5788 5784 5781 5777 5774 5771 5767 5764 5760 5757 5753 5750 5746 5742 5740 5738 5736 5735 5733 5731 5729 5727 5725 5723
5836 5835 5834 5833 5830 5828 5826 5824 5822 5820 5818 5816 5813 5810 5807 5804 5800 5797 5794 5790 5786 5783 5779 5776 5772 5769 5765 5762 5759 5755 5751 5748 5745 5741 5739 5737 5735 5733 5731 5729 5727 5725 5722 5720
5833 5832 5830 5828 5826 5825 5823 5821 5819 5817 5815 5813 5810 5807 5804 5800 5797 5794 5792 5788 5784 5781 5777 5774 5771 5767 5764 5761 5757 5753 5750 5747 5744 5741 5739 5736 5733 5732 5730 5728 5726 5723 5720 5718
5829 5828 5827 5825 5823 5821 5820 5818 5816 5814 5812 5810 5808 5805 5801 5798 5795 5792 5789 5786 5782 5779 5776 5772 5769 5766 5763 5759 5756 5752 5749 5746 5743 5740 5738 5734 5732 5731 5729 5727 5724 5722 5719 5716
5826 5824 5823 5821 5819 5817 5816 5815 5813 5810 5808 5807 5805 5802 5798 5795 5792 5789 5786 5783 5780 5777 5774 5771 5768 5764 5761 5758 5755 5751 5748 5745 5742 5739 5736 5734 5732 5730 5728 5726 5723 5720 5717 5714
5823 5821 5819 5818 5816 5815 5816 5811 5809 5807 5805 5803 5800 5798 5795 5792 5789 5786 5782 5780 5777 5775 5772 5769 5766 5763 5760 5757 5754 5750 5747 5744 5741 5738 5736 5734 5731 5729 5727 5725 5722 5719 5716 5713
5819 5818 5816 5814 5812 5811 5810 5808 5805 5803 5801 5800 5797 5794 5792 5789 5786 5783 5780 5777 5775 5772 5770 5767 5764 5761 5759 5756 5752 5749 5746 5743 5740 5738 5735 5733 5731 5729 5726 5724 5721 5717 5714 5711
5815 5814 5812 5810 5808 5807 5807 5804 5801 5800 5797 5796 5793 5791 5788 5785 5783 5781 5777 5774 5772 5770 5767 5765 5762 5759 5757 5754 5751 5748 5745 5742 5739 5737 5734 5732 5730 5727 5725 5722 5719 5716 5712 5709
5811 5810 5808 5806 5804 5802 5801 5799 5798 5797 5795 5791 5789 5786 5784 5782 5780 5777 5774 5771 5769 5767 5764 5762 5760 5757 5754 5752 5749 5746 5744 5741 5738 5736 5733 5731 5728 5726 5723 5720 5717 5713 5710 5707
5807 5805 5803 5802 5800 5800 5796 5794 5793 5792 5789 5787 5785 5783 5780 5778 5776 5773 5770 5768 5766 5763 5761 5759 5757 5755 5752 5750 5747 5745 5742 5740 5737 5734 5732 5729 5727 5724 5721 5718 5715 5711 5708 5704
5802 5801 5799 5798 5797 5794 5791 5789 5788 5786 5784 5782 5781 5778 5776 5774 5772 5770 5767 5765 5762 5760 5758 5756 5754 5752 5750 5747 5745 5743 5740 5738 5735 5733 5731 5728 5725 5722 5719 5716 5713 5709 5706 5702
5796 5794 5793 5791 5790 5788 5786 5784 5783 5781 5779 5777 5776 5774 5772 5770 5768 5766 5763 5761 5759 5757 5755 5753 5751 5749 5747 5745 5743 5741 5738 5736 5734 5731 5729 5726 5723 5720 5717 5714 5711 5707 5704 5700
5790 5789 5787 5785 5784 5782 5780 5779 5777 5775 5774 5772 5771 5769 5767 5765 5764 5761 5759 5757 5755 5753 5752 5750 5748 5747 5745 5743 5741 5738 5736 5734 5731 5729 5726 5724 5721 5718 5715 5712 5709 5705 5702 5698
5783 5782 5780 5779 5778 5776 5775 5773 5771 5770 5768 5767 5765 5763 5762 5760 5758 5757 5755 5753 5752 5750 5748 5747 5745 5744 5742 5740 5738 5736 5734 5731 5729 5727 5724 5722 5719 5716 5714 5711 5707 5704 5700 5696